{"data":{"norad_id":52791,"intl_designator":"2022-058G","name":"GEESAT-1 07","alt_names":[],"object_type":"PAYLOAD","status":"ACTIVE","operator":null,"country":"PRC","launch_date":"2022-06-02","launch_site_code":"XICLF","launch_vehicle":null,"mission":null,"orbit_class":"UNKNOWN","rcs_meters":null,"size_class":null,"mass_kg":null,"dimensions":null,"purposes":[],"wikipedia_slug":null,"has_3d_model":false,"image_url":null,"decayed_at":null,"tle_current":{"epoch":"2026-05-25T03:43:46.661088Z","epoch_age_seconds":72189,"freshness":"FRESH","line1":"1 52791U 22058G   26145.15540117  .00001507  00000+0  21929-3 0  9991","line2":"2 52791  49.9896 307.8697 0012450   7.8302 352.2827 14.81299379216510","mean_motion":14.81299379,"eccentricity":0.001245,"inclination_deg":49.9896,"raan_deg":307.8697,"arg_perigee_deg":7.8302,"mean_anomaly_deg":352.2827,"bstar":0.00021929,"rev_number":21651,"period_min":97.211949212597,"perigee_km":616.50643870733,"apogee_km":633.94481164401,"semimajor_km":7003.3626251757,"source":"CELESTRAK","updated_at":"2026-05-25T13:37:57.890039Z"}}}